Location: Düngen
(52.0952°N, 10.0219°E)
Time: 15:00:04
(UTC+00:00)

Cosmos 2266 Rocket - Pass Details

Date: 11 March 2026
Orbit: 934 x 1006 km, 82.9° (Epoch: 14 April)

Event Time Altitude Azimuth Distance (km) Brightness Sun altitude
Rises 19:26:39 0° 188° (S) 3,660 6.9 -20.3°
Reaches altitude 10° 19:29:08 10° 188° (S) 2,727 6.2 -20.7°
Maximum altitude 19:35:25 89° 274° (W) 1,001 4.0 -21.5°
Drops below altitude 10° 19:41:51 10° 10° (N) 2,786 6.5 -22.4°
Sets 19:44:25 0° 11° (N) 3,745 7.2 -22.8°
